Terminal Aerodrome Forecast
Issued by NWS

Home | Current Version | Previous Version | Text Only | Print | Product List | Glossary On
Versions: 1 2 3 4 5 6 7 8 9 10 11 12 13
000
FTUS45 KTFX 110500
TAFHLN
TAF
KHLN 110520Z 1106/1206 VRB06KT P6SM SCT070
     FM111000 36011KT P6SM SCT020
     FM111800 01010KT P6SM SCT060=

USA.gov is the U.S. government's official web portal to all federal, state and local government web resources and services.